{"data":{"norad_id":57089,"epoch":"2026-05-25T00:12:31.383648Z","epoch_age_seconds":77767,"freshness":"FRESH","line1":"1 57089U 23088AT  26145.00869657  .00004721  00000+0  18094-3 0  9997","line2":"2 57089  43.0028  24.9990 0001679 262.4039  97.6622 15.27585150162178","mean_motion":15.2758515,"eccentricity":0.0001679,"inclination_deg":43.0028,"raan_deg":24.999,"arg_perigee_deg":262.4039,"mean_anomaly_deg":97.6622,"bstar":0.00018094,"rev_number":16217,"period_min":94.266430908941,"perigee_km":481.88168457392,"apogee_km":484.18566568663,"semimajor_km":6861.1706751303,"source":"CELESTRAK","updated_at":"2026-05-25T13:38:18.217381Z"}}